DW0542 Weather Reports


time (UTC)temp
C
wind
direction
speed
KPH
gust
KPH
rain 1hr
cm
rain 24hr
cm
rain mn
cm
humidity
%
barometer
mb
20260901133054 18 132 0.0 0.0 0.46 0.71 0.71 91 1017.1
20260901131559 18 132 0.0 3.2 0.28 0.48 0.48 91 1017.7
20260901130052 18 132 0.0 0.0 0.28 0.36 0.36 91 1016.9
20260901124550 18 132 0.0 0.0 0.25 0.28 0.28 91 1016.9
20260901123049 18 132 0.0 0.0 0.25 0.28 0.28 91 1016.8
20260901121548 18 132 0.0 1.6 0.18 0.20 0.20 91 1017.0
20260901120047 18 132 0.0 0.0 0.05 0.08 0.08 91 1017.1
20260901114546 18 132 0.0 0.0 0.03 0.03 0.03 90 1017.1
20260901113045 18 132 0.0 0.0 0.03 0.03 0.03 91 1017.0
20260901111542 18 132 0.0 0.0 0.03 0.05 0.03 90 1016.9
20260901110041 18 132 0.0 0.0 0.03 0.05 0.03 90 1016.7
20260901104540 18 132 0.0 0.0 0.00 0.03 0.00 90 1016.7
20260901103047 18 132 0.0 0.0 0.00 0.03 0.00 90 1016.7
20260901101537 18 132 0.0 0.0 0.00 0.03 0.00 90 1016.5
20260901100036 18 132 0.0 0.0 0.00 0.03 0.00 90 1016.5
20260901093035 18 132 0.0 0.0 0.00 0.03 0.00 89 1016.7
20260901091532 18 132 0.0 0.0 0.00 0.03 0.00 89 1016.8
20260901090031 18 132 0.0 0.0 0.00 0.03 0.00 89 1016.7
20260901084531 18 132 0.0 0.0 0.00 0.03 0.00 89 1016.6
20260901083030 18 132 0.0 0.0 0.00 0.03 0.00 89 1016.5
20260901081556 18 132 0.0 0.0 0.00 0.03 0.00 89 1016.9
20260901080054 18 132 0.0 0.0 0.00 0.03 0.00 88 1017.2
20260901074551 18 132 0.0 0.0 0.00 0.03 0.00 88 1017.4
20260901073050 18 132 0.0 0.0 0.00 0.03 0.00 87 1017.3
20260901071558 18 132 0.0 0.0 0.00 0.03 0.00 87 1017.4
20260901070047 18 132 0.0 0.0 0.00 0.03 0.00 87 1017.4
20260901064545 18 132 0.0 0.0 0.00 0.03 0.00 87 1017.4
20260901063043 18 132 0.0 0.0 0.00 0.03 0.00 86 1017.4
20260901061541 18 132 0.0 0.0 0.00 0.03 0.00 86 1017.6
20260901060041 18 132 0.0 0.0 0.00 0.03 0.00 86 1017.9
20260901054538 18 132 0.0 0.0 0.00 0.03 0.00 86 1017.7
20260901053043 18 132 0.0 0.0 0.00 0.03 0.00 85 1017.7
20260901051535 18 132 0.0 0.0 0.00 0.03 0.00 85 1017.9
20260901050035 18 132 0.0 0.0 0.00 0.03 0.00 85 1018.0
20260901044506 18 132 0.0 0.0 0.00 0.03 0.00 85 1018.1
20260901043031 18 132 0.0 0.0 0.00 0.03 0.00 84 1018.2
20260901041530 18 132 0.0 0.0 0.00 0.03 0.00 84 1018.1
20260901040029 18 132 0.0 0.0 0.00 0.03 0.00 84 1018.2
20260901034532 18 132 0.0 0.0 0.00 0.03 0.00 84 1018.2
20260901031525 18 132 0.0 0.0 0.00 0.03 0.00 83 1018.4
20260901030027 18 132 0.0 0.0 0.00 0.03 0.00 82 1018.3
20260901024505 18 132 0.0 0.0 0.00 0.03 0.00 81 1018.2
20260901023043 18 132 0.0 0.0 0.00 0.03 0.00 80 1018.2
20260901021538 18 132 0.0 0.0 0.00 0.25 0.00 79 1018.2
20260901020036 19 132 0.0 0.0 0.00 0.25 0.00 78 1018.2
20260901014535 19 132 0.0 0.0 0.00 0.25 0.00 78 1018.3
20260901013033 19 132 0.0 0.0 0.00 0.25 0.00 77 1018.5
20260901011528 20 132 0.0 0.0 0.00 0.25 0.00 77 1018.4
20260901010027 20 132 0.0 0.0 0.00 0.25 0.00 77 1018.4
20260901004525 20 132 0.0 0.0 0.00 0.25 0.00 78 1018.4
20260901003024 20 133 0.0 0.0 0.00 0.25 0.00 78 1018.3
20260901001553 20 133 0.0 0.0 0.00 0.25 0.00 79 1018.2
20260901000057 21 176 0.0 4.8 0.00 0.25 0.00 79 1018.1
20260831234546 21 176 0.0 0.0 0.00 0.25 0.00 79 1018.2
20260831233042 21 177 0.0 0.0 0.00 0.25 0.00 78 1018.2
20260831231546 21 178 0.0 0.0 0.00 0.25 0.00 77 1018.2
20260831230041 22 195 0.0 0.0 0.00 0.25 0.00 75 1018.3
20260831224533 22 199 0.0 0.0 0.00 0.25 0.00 69 1018.2
20260831223032 22 199 0.0 0.0 0.00 0.25 0.00 67 1018.2
20260831221532 22 199 0.0 0.0 0.00 0.25 0.25 65 1018.4
20260831220029 23 199 0.0 0.0 0.00 0.25 0.25 66 1018.2
20260831214528 23 199 0.0 0.0 0.00 0.25 0.25 68 1018.4
20260831213029 23 199 0.0 6.4 0.00 0.25 0.25 65 1018.3
20260831211531 23 201 0.0 9.7 0.00 0.25 0.25 62 1018.4
20260831210024 23 203 0.0 8.0 0.00 0.25 0.25 61 1018.3
20260831204526 23 201 0.0 12.9 0.00 0.25 0.25 62 1018.5
20260831203053 24 179 0.0 11.3 0.00 0.25 0.25 60 1018.5
20260831201552 24 209 3.2 12.9 0.00 0.25 0.25 62 1018.3
20260831200052 23 253 0.0 6.4 0.00 0.25 0.25 61 1018.3
20260831194612 24 280 0.0 1.6 0.00 0.25 0.25 61 1018.4
20260831193046 24 282 0.0 1.6 0.00 0.25 0.25 60 1018.7
20260831191544 23 282 0.0 0.0 0.00 0.25 0.25 61 1018.8
20260831190046 23 282 0.0 0.0 0.00 0.25 0.25 60 1019.0
20260831184541 23 282 0.0 0.0 0.00 0.25 0.25 60 1019.0
20260831183041 23 282 0.0 1.6 0.00 0.25 0.25 60 1019.1
20260831181541 23 282 0.0 0.0 0.00 0.25 0.25 61 1019.3
20260831180011 23 282 0.0 1.6 0.00 0.25 0.25 59 1019.4
20260831174509 23 274 0.0 0.0 0.00 0.25 0.25 58 1019.3
20260831173004 23 274 0.0 0.0 0.00 0.25 0.25 60 1019.6
20260831171504 22 274 0.0 4.8 0.00 0.25 0.25 60 1019.5
20260831170002 22 272 0.0 6.4 0.00 0.25 0.25 63 1019.7
20260831164612 22 272 0.0 1.6 0.00 0.25 0.25 62 1019.9
20260831163102 22 285 0.0 6.4 0.00 0.25 0.25 62 1019.9
20260831161555 22 286 0.0 1.6 0.00 0.25 0.25 64 1020.1
20260831160055 21 285 0.0 1.6 0.00 0.25 0.25 66 1020.0
20260831154603 21 285 0.0 0.0 0.00 0.25 0.25 67 1020.3
20260831153049 21 286 1.6 8.0 0.00 0.25 0.25 68 1020.3
20260831151547 21 164 0.0 0.0 0.00 0.25 0.25 70 1020.3
20260831150046 21 164 0.0 0.0 0.00 0.25 0.25 69 1020.4
20260831144546 21 162 0.0 0.0 0.00 0.25 0.25 70 1020.4
20260831143052 20 179 0.0 8.0 0.00 0.25 0.25 72 1020.4
20260831141542 20 344 0.0 6.4 0.00 0.25 0.25 72 1020.4
20260831134542 20 326 0.0 1.6 0.00 0.25 0.25 72 1020.4